Location: Marengo
(51.4813°N, 109.7825°W)
Time: 21:14:53
(UTC+00:00)

Envisat - Pass Details

Date: 29 January 2022
Orbit: 764 x 765 km, 98.2° (Epoch: 21 May)

Event Time Altitude Azimuth Distance (km) Brightness Sun altitude
Rises 12:24:16 0° 14° (NNE) 3,244 6.4 -24.4°
Reaches altitude 10° 12:26:35 10° 15° (NNE) 2,314 5.7 -24.0°
Maximum altitude 12:31:42 86° 105° (ESE) 774 2.9 -23.2°
Drops below altitude 10° 12:36:47 10° 195° (SSW) 2,298 5.3 -22.5°
Sets 12:39:05 0° 195° (SSW) 3,220 6.1 -22.1°
